OK1FET-6 Weather Reports


time (UTC)temp
C
wind
direction
speed
KPH
gust
KPH
rain 1hr
cm
rain 24hr
cm
rain mn
cm
humidity
%
barometer
mb
20260502181627 19 143 0.0 1.6 0.00 0.00 0.00 25 1017.1
20260502181128 20 135 0.0 0.0 0.00 0.00 0.00 25 1017.1
20260502180630 20 131 0.0 1.6 0.00 0.00 0.00 24 1017.1
20260502180131 20 119 1.6 3.2 0.00 0.00 0.00 24 1017.0
20260502170149 24 112 1.6 4.8 0.00 0.00 0.00 22 1017.4
20260502164155 26 132 4.8 11.3 0.00 0.00 0.00 21 1017.5
20260502163656 26 206 3.2 6.4 0.00 0.00 0.00 21 1017.6
20260502163158 27 154 1.6 4.8 0.00 0.00 0.00 21 1017.7
20260502162659 27 104 1.6 8.0 0.00 0.00 0.00 21 1017.7
20260502162201 28 114 1.6 4.8 0.00 0.00 0.00 20 1017.8
20260502161702 29 91 3.2 4.8 0.00 0.00 0.00 20 1017.9
20260502161204 30 111 3.2 6.4 0.00 0.00 0.00 20 1018.0
20260502160705 30 96 3.2 4.8 0.00 0.00 0.00 20 1018.0
20260502160206 31 107 3.2 8.0 0.00 0.00 0.00 19 1018.1
20260502152218 39 120 3.2 6.4 0.00 0.00 0.00 17 1018.7
20260502151720 40 128 3.2 6.4 0.00 0.00 0.00 17 1018.8
20260502151221 40 127 3.2 4.8 0.00 0.00 0.00 17 1018.8
20260502150722 40 106 3.2 8.0 0.00 0.00 0.00 17 1019.0
20260502150224 41 194 1.6 4.8 0.00 0.00 0.00 16 1019.0
20260502130259 47 89 3.2 6.4 0.00 0.00 0.00 16 1020.9
20260502123806 47 261 4.8 11.3 0.00 0.00 0.00 16 1021.2
20260502123307 46 303 3.2 4.8 0.00 0.00 0.00 17 1021.3
20260502122809 46 165 3.2 8.0 0.00 0.00 0.00 17 1021.3
20260502122310 46 106 4.8 9.7 0.00 0.00 0.00 17 1021.5
20260502121812 47 149 4.8 8.0 0.00 0.00 0.00 17 1021.6
20260502121313 48 220 6.4 16.1 0.00 0.00 0.00 16 1021.6
20260502120815 49 111 1.6 4.8 0.00 0.00 0.00 16 1021.8
20260502120316 48 267 4.8 8.0 0.00 0.00 0.00 17 1021.8
20260502115817 48 252 3.2 6.4 0.00 0.00 0.00 17 1021.8
20260502115319 48 185 1.6 4.8 0.00 0.00 0.00 17 1022.0
20260502114820 47 144 3.2 8.0 0.00 0.00 0.00 17 1022.0
20260502114322 47 164 4.8 8.0 0.00 0.00 0.00 18 1022.2
20260502113823 47 157 3.2 6.4 0.00 0.00 0.00 18 1022.2
20260502113325 47 124 3.2 6.4 0.00 0.00 0.00 18 1022.2
20260502112826 47 89 3.2 6.4 0.00 0.00 0.00 18 1022.3
20260502112327 47 129 3.2 6.4 0.00 0.00 0.00 18 1022.4
20260502111829 47 128 3.2 6.4 0.00 0.00 0.00 18 1022.4
20260502111331 46 83 3.2 4.8 0.00 0.00 0.00 19 1022.6
20260502110832 46 149 4.8 11.3 0.00 0.00 0.00 19 1022.6
20260502110333 46 148 3.2 9.7 0.00 0.00 0.00 19 1022.6
20260502105835 45 135 4.8 11.3 0.00 0.00 0.00 19 1022.7
20260502105336 46 170 4.8 11.3 0.00 0.00 0.00 19 1022.8
20260502104837 46 151 4.8 8.0 0.00 0.00 0.00 20 1022.8
20260502104339 45 46 3.2 6.4 0.00 0.00 0.00 20 1022.9
20260502103840 45 120 3.2 6.4 0.00 0.00 0.00 20 1023.0
20260502103342 45 103 4.8 11.3 0.00 0.00 0.00 20 1023.1
20260502102843 45 132 4.8 8.0 0.00 0.00 0.00 21 1023.1
20260502102345 44 203 4.8 11.3 0.00 0.00 0.00 21 1023.2
20260502101846 45 113 4.8 11.3 0.00 0.00 0.00 21 1023.2
20260502101347 45 201 3.2 11.3 0.00 0.00 0.00 21 1023.2
20260502100849 45 130 3.2 4.8 0.00 0.00 0.00 21 1023.3
20260502100350 45 234 4.8 11.3 0.00 0.00 0.00 22 1023.5
20260502091405 42 195 1.6 4.8 0.00 0.00 0.00 25 1024.0
20260502090906 41 192 1.6 4.8 0.00 0.00 0.00 25 1024.0
20260502090407 41 73 3.2 6.4 0.00 0.00 0.00 26 1024.1
20260502071439 13 49 1.6 4.8 0.00 0.00 0.00 45 1024.6
20260502070941 12 261 1.6 4.8 0.00 0.00 0.00 46 1024.6
20260502070442 12 358 3.2 6.4 0.00 0.00 0.00 47 1024.8
20260502065943 11 248 1.6 3.2 0.00 0.00 0.00 47 1024.7
20260502065445 11 286 3.2 6.4 0.00 0.00 0.00 48 1024.7
20260502064946 11 325 3.2 8.0 0.00 0.00 0.00 48 1024.7
20260502064448 11 170 1.6 4.8 0.00 0.00 0.00 48 1024.7
20260502063949 11 269 3.2 6.4 0.00 0.00 0.00 48 1024.8
20260502063451 10 223 3.2 4.8 0.00 0.00 0.00 48 1024.8
20260502062952 10 264 3.2 6.4 0.00 0.00 0.00 49 1024.7
20260502062454 10 306 1.6 8.0 0.00 0.00 0.00 49 1024.7
20260502061955 9 343 4.8 8.0 0.00 0.00 0.00 49 1024.8
20260502061457 9 342 3.2 6.4 0.00 0.00 0.00 49 1024.9
20260502060958 8 212 1.6 6.4 0.00 0.00 0.00 49 1024.9
20260502060500 8 41 1.6 6.4 0.00 0.00 0.00 49 1024.8
20260502060001 8 261 1.6 4.8 0.00 0.00 0.00 49 1024.8
20260502055503 8 229 3.2 6.4 0.00 0.00 0.00 50 1024.8
20260502055004 8 213 1.6 6.4 0.00 0.00 0.00 49 1024.8
20260502054506 8 247 3.2 6.4 0.00 0.00 0.00 49 1024.8
20260502054007 7 227 3.2 4.8 0.00 0.00 0.00 49 1024.8
20260502053509 7 221 1.6 4.8 0.00 0.00 0.00 50 1024.8
20260502053010 7 257 0.0 3.2 0.00 0.00 0.00 50 1024.8
20260502052511 6 231 3.2 8.0 0.00 0.00 0.00 50 1024.7
20260502052013 6 227 4.8 6.4 0.00 0.00 0.00 51 1024.7
20260502051514 6 237 3.2 4.8 0.00 0.00 0.00 50 1024.7
20260502051016 6 222 3.2 6.4 0.00 0.00 0.00 51 1024.6
20260502050517 5 254 1.6 6.4 0.00 0.00 0.00 51 1024.6
20260502050019 5 226 1.6 4.8 0.00 0.00 0.00 51 1024.6
20260502045520 5 209 0.0 1.6 0.00 0.00 0.00 51 1024.6
20260502045022 5 198 0.0 0.0 0.00 0.00 0.00 51 1024.6
20260502044523 5 203 0.0 0.0 0.00 0.00 0.00 51 1024.6
20260502044025 5 270 0.0 0.0 0.00 0.00 0.00 51 1024.5
20260502043526 5 270 0.0 0.0 0.00 0.00 0.00 51 1024.4
20260502043028 5 237 0.0 0.0 0.00 0.00 0.00 50 1024.5
20260502042529 4 184 0.0 1.6 0.00 0.00 0.00 50 1024.4
20260502042031 4 138 0.0 0.0 0.00 0.00 0.00 50 1024.5
20260502041532 4 220 0.0 0.0 0.00 0.00 0.00 50 1024.5
20260502041034 4 202 0.0 3.2 0.00 0.00 0.00 50 1024.5
20260502040535 4 147 0.0 0.0 0.00 0.00 0.00 50 1024.5
20260502040037 4 249 0.0 1.6 0.00 0.00 0.00 50 1024.5
20260502035538 4 221 0.0 3.2 0.00 0.00 0.00 50 1024.5
20260502035040 4 135 0.0 0.0 0.00 0.00 0.00 50 1024.6
20260502034541 4 135 0.0 0.0 0.00 0.00 0.00 50 1024.5
20260502034043 4 213 0.0 0.0 0.00 0.00 0.00 50 1024.5
20260502033544 4 203 0.0 0.0 0.00 0.00 0.00 49 1024.5
20260502033046 4 227 0.0 3.2 0.00 0.00 0.00 49 1024.5
20260502032547 4 270 0.0 0.0 0.00 0.00 0.00 49 1024.5
20260502032049 4 179 0.0 0.0 0.00 0.00 0.00 49 1024.5
20260502031550 4 226 0.0 4.8 0.00 0.00 0.00 49 1024.5
20260502031052 4 266 0.0 0.0 0.00 0.00 0.00 49 1024.5
20260502030553 5 266 0.0 1.6 0.00 0.00 0.00 49 1024.5
20260502030055 5 270 0.0 0.0 0.00 0.00 0.00 49 1024.5
20260502025556 5 149 0.0 1.6 0.00 0.00 0.00 49 1024.6
20260502025058 5 159 0.0 1.6 0.00 0.00 0.00 48 1024.6
20260502024559 5 127 0.0 1.6 0.00 0.00 0.00 48 1024.5
20260502024100 5 256 0.0 4.8 0.00 0.00 0.00 48 1024.5
20260502023602 5 254 0.0 0.0 0.00 0.00 0.00 48 1024.5
20260502023103 5 203 0.0 0.0 0.00 0.00 0.00 48 1024.5
20260502022605 5 200 0.0 0.0 0.00 0.00 0.00 48 1024.5
20260502022107 5 109 0.0 3.2 0.00 0.00 0.00 47 1024.5
20260502021608 5 164 0.0 0.0 0.00 0.00 0.00 47 1024.5
20260502021109 5 188 0.0 1.6 0.00 0.00 0.00 47 1024.5
20260502020611 5 180 0.0 0.0 0.00 0.00 0.00 47 1024.6
20260502020112 5 180 0.0 0.0 0.00 0.00 0.00 47 1024.6
20260502015614 5 180 0.0 0.0 0.00 0.00 0.00 47 1024.6
20260502015115 5 180 0.0 0.0 0.00 0.00 0.00 47 1024.7
20260502014617 5 180 0.0 0.0 0.00 0.00 0.00 46 1024.8
20260502014118 5 180 0.0 0.0 0.00 0.00 0.00 46 1024.7
20260502013620 5 180 0.0 0.0 0.00 0.00 0.00 46 1024.8
20260502013121 6 180 0.0 0.0 0.00 0.00 0.00 46 1024.7
20260502012623 6 180 0.0 0.0 0.00 0.00 0.00 46 1024.8
20260502012124 6 180 0.0 0.0 0.00 0.00 0.00 46 1024.8
20260502011626 6 180 0.0 0.0 0.00 0.00 0.00 45 1024.8
20260502011127 6 180 0.0 0.0 0.00 0.00 0.00 45 1024.8
20260502010629 6 180 0.0 0.0 0.00 0.00 0.00 45 1024.8
20260502010130 6 180 0.0 0.0 0.00 0.00 0.00 45 1024.8
20260502005632 6 180 0.0 0.0 0.00 0.00 0.00 45 1024.9
20260502005133 6 180 0.0 0.0 0.00 0.00 0.00 45 1024.9
20260502004635 6 181 0.0 3.2 0.00 0.00 0.00 44 1024.9
20260502004136 6 209 0.0 0.0 0.00 0.00 0.00 44 1024.9
20260502003637 6 270 0.0 0.0 0.00 0.00 0.00 44 1024.9
20260502003139 6 173 0.0 0.0 0.00 0.00 0.00 44 1024.9
20260502002640 6 132 0.0 0.0 0.00 0.00 0.00 44 1025.0
20260502002142 6 135 0.0 0.0 0.00 0.00 0.00 44 1025.0
20260502001643 6 160 0.0 0.0 0.00 0.00 0.00 43 1025.0
20260502001145 6 138 0.0 0.0 0.00 0.00 0.00 43 1025.0
20260502000646 6 135 0.0 0.0 0.00 0.00 0.00 43 1025.0
20260502000148 7 135 0.0 0.0 0.00 0.00 0.00 43 1025.0
20260501235649 7 135 0.0 0.0 0.00 0.00 0.00 43 1025.0
20260501235151 7 135 0.0 0.0 0.00 0.00 0.00 42 1025.0
20260501234652 7 128 0.0 0.0 0.00 0.00 0.00 42 1025.0
20260501234154 7 135 0.0 0.0 0.00 0.00 0.00 42 1025.1
20260501233655 7 135 0.0 0.0 0.00 0.00 0.00 42 1025.1
20260501233157 7 135 0.0 0.0 0.00 0.00 0.00 42 1025.0
20260501232658 7 135 0.0 0.0 0.00 0.00 0.00 41 1025.1
20260501232200 7 135 0.0 0.0 0.00 0.00 0.00 41 1025.2
20260501231701 7 154 0.0 0.0 0.00 0.00 0.00 41 1025.2
20260501231202 7 138 0.0 0.0 0.00 0.00 0.00 41 1025.2
20260501230704 7 173 0.0 0.0 0.00 0.00 0.00 41 1025.1
20260501230205 7 143 0.0 0.0 0.00 0.00 0.00 40 1025.1
20260501225707 8 159 0.0 0.0 0.00 0.00 0.00 40 1025.2
20260501225208 8 196 0.0 0.0 0.00 0.00 0.00 40 1025.2
20260501224710 8 160 0.0 0.0 0.00 0.00 0.00 40 1025.2
20260501224211 8 135 0.0 0.0 0.00 0.00 0.00 39 1025.2
20260501223713 8 173 0.0 0.0 0.00 0.00 0.00 39 1025.2
20260501223214 8 173 0.0 0.0 0.00 0.00 0.00 39 1025.1
20260501222716 8 135 0.0 0.0 0.00 0.00 0.00 39 1025.1
20260501222218 8 135 0.0 0.0 0.00 0.00 0.00 39 1025.2
20260501221719 8 135 0.0 0.0 0.00 0.00 0.00 38 1025.2
20260501221220 8 135 0.0 0.0 0.00 0.00 0.00 38 1025.2
20260501220722 8 135 0.0 0.0 0.00 0.00 0.00 38 1025.2
20260501220223 9 135 0.0 0.0 0.00 0.00 0.00 38 1025.2
20260501215724 9 135 0.0 0.0 0.00 0.00 0.00 38 1025.2
20260501215226 9 135 0.0 0.0 0.00 0.00 0.00 37 1025.1
20260501214727 9 135 0.0 0.0 0.00 0.00 0.00 37 1025.1
20260501214229 9 135 0.0 0.0 0.00 0.00 0.00 37 1025.1
20260501213731 10 135 0.0 0.0 0.00 0.00 0.00 37 1025.1
20260501213232 10 135 0.0 0.0 0.00 0.00 0.00 37 1025.1
20260501212733 10 135 0.0 0.0 0.00 0.00 0.00 36 1025.0
20260501212235 10 143 0.0 0.0 0.00 0.00 0.00 36 1025.0
20260501211736 10 135 0.0 0.0 0.00 0.00 0.00 36 1025.0
20260501211238 10 135 0.0 0.0 0.00 0.00 0.00 36 1025.0
20260501210739 10 135 0.0 0.0 0.00 0.00 0.00 36 1025.0
20260501210241 10 135 0.0 0.0 0.00 0.00 0.00 35 1025.0
20260501205742 10 135 0.0 0.0 0.00 0.00 0.00 35 1025.0
20260501205244 10 150 0.0 0.0 0.00 0.00 0.00 35 1025.1
20260501204745 10 270 0.0 0.0 0.00 0.00 0.00 35 1025.0
20260501204247 11 270 0.0 0.0 0.00 0.00 0.00 34 1025.0
20260501203748 11 270 0.0 0.0 0.00 0.00 0.00 34 1025.0
20260501203250 11 270 0.0 0.0 0.00 0.00 0.00 34 1025.0
20260501202751 11 270 0.0 0.0 0.00 0.00 0.00 34 1024.9
20260501202253 11 212 0.0 0.0 0.00 0.00 0.00 34 1024.9
20260501201754 11 190 0.0 0.0 0.00 0.00 0.00 33 1024.9
20260501201256 11 270 0.0 0.0 0.00 0.00 0.00 33 1025.0
20260501200757 12 270 0.0 0.0 0.00 0.00 0.00 33 1024.9
20260501200259 12 270 0.0 0.0 0.00 0.00 0.00 33 1024.9
20260501195800 12 203 0.0 0.0 0.00 0.00 0.00 32 1024.9
20260501195305 12 143 0.0 0.0 0.00 0.00 0.00 32 1024.9
20260501194803 12 135 0.0 0.0 0.00 0.00 0.00 32 1024.8
20260501194304 12 135 0.0 0.0 0.00 0.00 0.00 32 1024.9
20260501193806 12 135 0.0 0.0 0.00 0.00 0.00 32 1024.8
20260501193307 13 135 0.0 0.0 0.00 0.00 0.00 31 1024.8
20260501192809 13 189 0.0 0.0 0.00 0.00 0.00 31 1024.8
20260501192310 13 175 0.0 0.0 0.00 0.00 0.00 31 1024.9
20260501191812 13 135 0.0 0.0 0.00 0.00 0.00 31 1024.9
20260501191313 13 135 0.0 0.0 0.00 0.00 0.00 30 1024.9
20260501190815 14 135 0.0 0.0 0.00 0.00 0.00 30 1024.8
20260501190316 14 135 0.0 0.0 0.00 0.00 0.00 30 1024.8
20260501185818 15 135 0.0 0.0 0.00 0.00 0.00 29 1024.8
20260501185319 15 135 0.0 0.0 0.00 0.00 0.00 29 1024.8
20260501184821 15 135 0.0 0.0 0.00 0.00 0.00 29 1024.7
20260501184322 15 135 0.0 0.0 0.00 0.00 0.00 29 1024.7
20260501183824 16 135 0.0 0.0 0.00 0.00 0.00 28 1024.6
20260501183325 16 135 0.0 0.0 0.00 0.00 0.00 28 1024.6
20260501182826 16 135 0.0 0.0 0.00 0.00 0.00 28 1024.6
20260501182328 17 135 0.0 0.0 0.00 0.00 0.00 28 1024.6